Flag for U.S.A. Weather past 2 weeks in San Francisco, California, U.S.A.

Now
58 °F

Sunny.


Feels Like: 54 °F
Forecast: 47 / 56 °F
Wind: 18 mph from Northwest

Location: San Francisco International Airport

Current Time: Dec 25, 2014 at 2:48:14 PM

Latest Report: Dec 25, 2014 at 1:56 PM


Visibility: 10 mi

Pressure: 30.07 "Hg

Humidity: 43%

Dew point: 35 °F

Location of San FranciscoLocation

Historic Weather in San Francisco — Graph

°F

San Francisco temperature yesterday

Maximum temperature yesterday: 62 °F (at 12:56 PM)
Minimum temperature yesterday: 49 °F (at 11:56 PM)
Average temperature yesterday: 56 °F

Past Weeks' High & Low Weather Summary

 TemperatureHumidityPressure
High66 °F (Dec 11, 2:56 AM)100% (Dec 11, 11:56 AM)30.32 "Hg (Dec 11, 11:56 AM)
Low48 °F (Dec 25, 2:56 AM)42% (Dec 25, 12:56 PM)29.51 "Hg (Dec 11, 6:56 AM)
Average56 °F89%30.04 "Hg
* Reported Dec 10 1:56 PM — Dec 25 1:56 PM, San Francisco, Weather by CustomWeather, © 2014

Note: Actual official high and low records may vary slightly from our data, if they occured in-between our weather recording intervals... More about our weather records

Advertising

San Francisco weather history for previous 24 hours

 ConditionsComfort  
Time TempWeatherWind HumidityBarometerVisibility
1:56 PM
Dec 25
58 °FSunny.18 mph43%30.07 "Hg10 mi
12:56 PM57 °FPassing clouds.17 mph42%30.10 "Hg10 mi
11:56 AM55 °FSunny.14 mph53%30.12 "Hg10 mi
10:56 AM53 °FSunny.14 mph59%30.14 "Hg10 mi
9:56 AM53 °FSunny.15 mph52%30.15 "Hg10 mi
8:56 AM52 °FPassing clouds.13 mph57%30.15 "Hg10 mi
7:56 AM51 °FPassing clouds.13 mph54%30.12 "Hg10 mi
6:56 AM51 °FPassing clouds.16 mph59%30.12 "Hg10 mi
5:56 AM50 °FClear.10 mph61%30.11 "Hg10 mi
4:56 AM48 °FPassing clouds.12 mph66%30.10 "Hg10 mi
3:56 AM50 °FPassing clouds.13 mph63%30.10 "Hg10 mi
2:56 AM48 °FPassing clouds.8 mph63%30.10 "Hg10 mi
1:56 AM51 °FPassing clouds.15 mph63%30.09 "Hg10 mi
12:56 AM50 °FPassing clouds.9 mph66%30.10 "Hg10 mi
11:56 PM
Dec 24
49 °FClear.9 mph71%30.09 "Hg10 mi
10:56 PM52 °FClear.13 mph64%30.08 "Hg10 mi
9:56 PM51 °FClear.7 mph71%30.06 "Hg10 mi
8:56 PM53 °FClear.12 mph66%30.03 "Hg10 mi
7:56 PM54 °FClear.18 mph67%30.03 "Hg10 mi
6:56 PM54 °FPassing clouds.21 mph72%30.00 "Hg10 mi
5:56 PM55 °FPassing clouds.20 mph72%30.01 "Hg10 mi
4:56 PM55 °FPassing clouds.24 mph72%29.99 "Hg10 mi
3:56 PM56 °FScattered clouds.25 mph77%29.98 "Hg10 mi
2:56 PM56 °FLight rain. Broken clouds.25 mph87%29.98 "Hg10 mi
Weather by CustomWeather, © 2014

See weather overviewHow to use our weather pages